Weather History for Lincolnton, NC

Change the Weather History Date:

Sunday, July 28, 2013

  Actual Average (KCLT) Record (KCLT)
Temperature  
Mean Temperature 78 °F 79 °F  
Max Temperature 86 °F 89 °F 102 °F (1952)
Min Temperature 69 °F 68 °F 54 °F (1962)
Degree Days  
Heating Degree Days 0 0  
Month to date heating degree days 0  
Since 1 June heating degree days 3  
Since 1 July heating degree days 0  
Cooling Degree Days 12 14  
Month to date cooling degree days 385  
Year to date cooling degree days 859  
Since 1 June cooling degree days 696  
Growing Degree Days 28 (Base 50)    
Moisture  
Dew Point 68 °F    
Average Humidity 81    
Maximum Humidity 100    
Minimum Humidity 51    
Precipitation  
Precipitation 0.07 in 0.13 in 2.98 in (1923)
Month to date precipitation 3.26  
Year to date precipitation 23.96  
Snow  
Snow 0.00 in 0.00 in 0.00 in ()
Month to date snowfall 0.0  
Since 1 June snowfall 0.0  
Since 1 July snowfall 0.0  
Snow Depth -    
Sea Level Pressure  
Sea Level Pressure 29.98 in    
Wind  
Wind Speed 2 mph (WSW)    
Max Wind Speed 8 mph    
Max Gust Speed -    
Visibility 7 miles    
Events Fog , Rain    
T = Trace of Precipitation, MM = Missing Value Source: NWS Daily Summary

Daily Weather History Graph

Daily Weather History Graph

Search for Another Location

Airport:

Trip Planner

Search our weather history database for the weather conditions in past years. The results will help you decide how hot, cold, wet, or windy it might be!

Date:

Astronomy

Jul. 28, 2013 Rise Set
Actual Time 6:30 AM EDT 8:31 PM EDT
Civil Twilight 6:01 AM EDT 8:59 PM EDT
Nautical Twilight 5:27 AM EDT 9:34 PM EDT
Astronomical Twilight 4:50 AM EDT 10:11 PM EDT
Moon No Moon Rise 12:54 PM EDT (7/28)
Length of Visible Light 14h 57m
Length of Day
14h 01m
Waning Gibbous, 61% of the Moon is Illuminated
Jul 28
Waning Gibbous
Jul 29
Last Quarter
Aug 6
New
Aug 14
First Quarter
Aug 20
Full

Hourly Weather History & Observations

Time (EDT) Temp. Heat Index Dew Point Humidity Pressure Visibility Wind Dir Wind Speed Gust Speed Precip Events Conditions
12:16 AM 69.8 °F - 69.8 °F 100% 29.98 in 7.0 mi Calm Calm - N/A   Overcast
12:36 AM 69.8 °F - 69.8 °F 100% 29.97 in 5.0 mi Calm Calm - N/A   Overcast
12:55 AM 69.8 °F - 69.8 °F 100% 29.96 in 3.0 mi Calm Calm - N/A   Overcast
1:16 AM 69.8 °F - 69.8 °F 100% 29.96 in 3.0 mi Calm Calm - N/A   Overcast
1:36 AM 69.8 °F - 69.8 °F 100% 29.96 in 3.0 mi Calm Calm - N/A   Overcast
1:56 AM 69.8 °F - 69.8 °F 100% 29.95 in 3.0 mi Calm Calm - N/A   Overcast
2:16 AM 69.8 °F - 68.0 °F 94% 29.95 in 4.0 mi Calm Calm - N/A   Overcast
2:36 AM 69.8 °F - 68.0 °F 94% 29.95 in 4.0 mi Calm Calm - N/A   Overcast
2:56 AM 69.8 °F - 68.0 °F 94% 29.95 in 2.0 mi Calm Calm - N/A   Overcast
3:16 AM 69.8 °F - 69.8 °F 100% 29.95 in 2.5 mi Calm Calm - N/A   Overcast
3:36 AM 69.8 °F - 69.8 °F 100% 29.95 in 5.0 mi Calm Calm - N/A   Overcast
3:56 AM 69.8 °F - 68.0 °F 94% 29.95 in 7.0 mi Calm Calm - N/A   Overcast
4:16 AM 69.8 °F - 68.0 °F 94% 29.95 in 7.0 mi Calm Calm - N/A   Overcast
4:35 AM 69.8 °F - 68.0 °F 94% 29.95 in 7.0 mi Calm Calm - N/A   Overcast
4:57 AM 69.8 °F - 68.0 °F 94% 29.95 in 7.0 mi Calm Calm - N/A   Overcast
5:15 AM 69.8 °F - 66.2 °F 88% 29.96 in 7.0 mi Calm Calm - N/A   Overcast
5:35 AM 69.8 °F - 68.0 °F 94% 29.96 in 7.0 mi Calm Calm - N/A   Overcast
6:18 AM 69.8 °F - 68.0 °F 94% 29.97 in 5.0 mi Calm Calm - N/A   Overcast
6:38 AM 69.8 °F - 68.0 °F 94% 29.97 in 1.0 mi Calm Calm - N/A   Overcast
6:55 AM 69.8 °F - 68.0 °F 94% 29.98 in 0.5 mi SW 3.5 mph - N/A Fog Fog
7:17 AM 69.8 °F - 68.0 °F 94% 29.98 in 0.2 mi Calm Calm - N/A Fog Fog
7:37 AM 69.8 °F - 68.0 °F 94% 29.99 in 0.5 mi WSW 4.6 mph - N/A Fog Fog
7:58 AM 69.8 °F - 69.8 °F 100% 29.98 in 2.0 mi Calm Calm - N/A   Overcast
8:17 AM 69.8 °F - 69.8 °F 100% 29.98 in 3.0 mi WSW 3.5 mph - N/A   Overcast
8:36 AM 71.6 °F - 69.8 °F 94% 30.00 in 5.0 mi WSW 3.5 mph - N/A   Overcast
9:15 AM 71.6 °F - 69.8 °F 94% 30.00 in 7.0 mi SW 6.9 mph - N/A   Overcast
9:35 AM 71.6 °F - 68.0 °F 88% 30.00 in 7.0 mi SW 8.1 mph - N/A   Overcast
9:55 AM 71.6 °F - 68.0 °F 88% 30.00 in 7.0 mi West 4.6 mph - N/A   Overcast
10:15 AM 73.4 °F - 68.0 °F 83% 30.00 in 7.0 mi West 4.6 mph - N/A   Overcast
10:35 AM 73.4 °F - 68.0 °F 83% 30.00 in 10.0 mi West 4.6 mph - N/A   Overcast
10:55 AM 75.2 °F - 68.0 °F 78% 30.00 in 10.0 mi WSW 4.6 mph - N/A   Overcast
11:15 AM 75.2 °F - 66.2 °F 73% 30.00 in 10.0 mi West 3.5 mph - N/A   Mostly Cloudy
11:35 AM 77.0 °F - 66.2 °F 69% 30.01 in 10.0 mi West 5.8 mph - N/A   Overcast
11:55 AM 77.0 °F - 66.2 °F 69% 30.01 in 10.0 mi Calm Calm - N/A   Overcast
12:17 PM 78.8 °F - 66.2 °F 65% 30.01 in 10.0 mi WSW 4.6 mph - N/A   Overcast
12:37 PM 80.6 °F 82.7 °F 66.2 °F 61% 30.00 in 10.0 mi WSW 4.6 mph - N/A   Scattered Clouds
12:55 PM 80.6 °F 82.7 °F 66.2 °F 61% 30.00 in 10.0 mi WSW 6.9 mph - N/A   Scattered Clouds
1:15 PM 82.4 °F 84.6 °F 66.2 °F 58% 30.00 in 10.0 mi WNW 3.5 mph - N/A   Scattered Clouds
1:35 PM 80.6 °F 82.3 °F 64.4 °F 58% 30.00 in 10.0 mi Calm Calm - N/A   Scattered Clouds
1:57 PM 82.4 °F 84.6 °F 66.2 °F 58% 30.00 in 10.0 mi SW 3.5 mph - N/A   Scattered Clouds
2:15 PM 84.2 °F 86.6 °F 66.2 °F 55% 30.00 in 10.0 mi WSW 6.9 mph - N/A   Scattered Clouds
2:35 PM 82.4 °F 84.6 °F 66.2 °F 58% 29.98 in 10.0 mi Calm Calm - N/A   Scattered Clouds
3:15 PM 84.2 °F 86.6 °F 66.2 °F 55% 29.97 in 10.0 mi Calm Calm - N/A   Scattered Clouds
3:35 PM 84.2 °F 86.6 °F 66.2 °F 55% 29.96 in 10.0 mi South 3.5 mph - N/A   Scattered Clouds
3:55 PM 86.0 °F 88.2 °F 66.2 °F 51% 29.96 in 10.0 mi South 5.8 mph - N/A   Scattered Clouds
4:16 PM 86.0 °F 88.2 °F 66.2 °F 51% 29.95 in 10.0 mi SW 4.6 mph - N/A   Scattered Clouds
4:35 PM 86.0 °F 88.2 °F 66.2 °F 51% 29.95 in 10.0 mi SW 5.8 mph - N/A   Scattered Clouds
4:55 PM 82.4 °F 84.6 °F 66.2 °F 58% 29.95 in 10.0 mi SW 5.8 mph - N/A   Scattered Clouds
5:15 PM 82.4 °F 85.4 °F 68.0 °F 62% 29.95 in 10.0 mi SW 3.5 mph - N/A   Scattered Clouds
5:35 PM 86.0 °F 89.4 °F 68.0 °F 55% 29.95 in 10.0 mi SW 4.6 mph - N/A   Clear
5:55 PM 84.2 °F 86.6 °F 66.2 °F 55% 29.95 in 10.0 mi SW 5.8 mph - N/A   Clear
6:15 PM 84.2 °F 86.6 °F 66.2 °F 55% 29.95 in 10.0 mi SW 5.8 mph - N/A   Clear
6:35 PM 82.4 °F 84.6 °F 66.2 °F 58% 29.96 in 10.0 mi SW 3.5 mph - N/A   Scattered Clouds
6:55 PM 80.6 °F 83.9 °F 69.8 °F 70% 29.96 in 10.0 mi SSW 3.5 mph - N/A   Mostly Cloudy
7:15 PM 77.0 °F - 66.2 °F 69% 29.98 in 10.0 mi South 6.9 mph - N/A   Overcast
7:37 PM 73.4 °F - 69.8 °F 88% 29.98 in 7.0 mi North 3.5 mph - 0.01 in Rain Light Rain
7:57 PM 73.4 °F - 69.8 °F 88% 29.99 in 7.0 mi Calm Calm - 0.01 in   Scattered Clouds
8:15 PM 73.4 °F - 69.8 °F 88% 30.00 in 10.0 mi Calm Calm - N/A   Mostly Cloudy
8:35 PM 71.6 °F - 69.8 °F 94% 30.00 in 4.0 mi Calm Calm - N/A   Scattered Clouds
8:55 PM 71.6 °F - 69.8 °F 94% 30.01 in 5.0 mi Calm Calm - 0.01 in Rain Rain
9:15 PM 71.6 °F - 68.0 °F 88% 30.00 in 10.0 mi SW 3.5 mph - 0.04 in   Mostly Cloudy
9:35 PM 71.6 °F - 68.0 °F 88% 30.01 in 10.0 mi Calm Calm - 0.04 in   Mostly Cloudy
9:55 PM 71.6 °F - 68.0 °F 88% 30.02 in 10.0 mi Calm Calm - 0.05 in   Overcast
10:16 PM 71.6 °F - 68.0 °F 88% 30.02 in 10.0 mi Calm Calm - N/A   Overcast
10:36 PM 71.6 °F - 69.8 °F 94% 30.03 in 10.0 mi WNW 3.5 mph - N/A   Scattered Clouds
10:56 PM 69.8 °F - 68.0 °F 94% 30.02 in 10.0 mi Calm Calm - N/A   Clear
11:15 PM 69.8 °F - 68.0 °F 94% 30.02 in 7.0 mi Calm Calm - N/A   Clear
11:35 PM 69.8 °F - 68.0 °F 94% 30.02 in 4.0 mi Calm Calm - N/A   Clear
11:55 PM 69.8 °F - 68.0 °F 94% 30.02 in 5.0 mi Calm Calm - N/A   Clear